This is the latest recevied weather packets stored in our database for station/object HP3ICC-22. If no packets are shown the sender has not sent any weather packets the latest 10 day(s).
| Time | Temp. | Humidity | Pressure | Rain* | Wind** | Luminosity | Snow |
|---|---|---|---|---|---|---|---|
| 1777411172 | 14.44° C | 66% | 1012 hPa | 0 mm | - | - | - |
| 1777411112 | 14.44° C | 66% | 1012 hPa | 0 mm | - | - | - |
| 1777409971 | 13.89° C | 72% | 1012 hPa | 0 mm | - | - | - |
| 1777409911 | 13.89° C | 72% | 1012 hPa | 0 mm | - | - | - |
| 1777408771 | 13.89° C | 72% | 1012 hPa | 0 mm | - | - | - |
| 1777408711 | 13.89° C | 72% | 1012 hPa | 0 mm | - | - | - |
| 1777407571 | 13.33° C | 70% | 1012 hPa | 0 mm | - | - | - |
| 1777407510 | 13.33° C | 70% | 1012 hPa | 0 mm | - | - | - |
| 1777406370 | 13.89° C | 72% | 1012 hPa | 0 mm | - | - | - |
| 1777406310 | 13.89° C | 72% | 1012 hPa | 0 mm | - | - | - |
| 1777405170 | 13.89° C | 71% | 1012 hPa | 0 mm | - | - | - |
| 1777405109 | 13.89° C | 71% | 1012 hPa | 0 mm | - | - | - |
| 1777403969 | 14.44° C | 68% | 1012 hPa | 0 mm | - | - | - |
| 1777403913 | 14.44° C | 68% | 1012 hPa | 0 mm | - | - | - |
| 1777402768 | 13.89° C | 70% | 1012 hPa | 0 mm | - | - | - |
| 1777402708 | 13.89° C | 70% | 1012 hPa | 0 mm | - | - | - |
| 1777401568 | 13.89° C | 70% | 1012 hPa | 0 mm | - | - | - |
| 1777401508 | 13.89° C | 70% | 1012 hPa | 0 mm | - | - | - |
| 1777400367 | 13.89° C | 68% | 1012 hPa | 0 mm | - | - | - |
| 1777400307 | 13.89° C | 68% | 1012 hPa | 0 mm | - | - | - |
| 1777399167 | 13.33° C | 70% | 1013 hPa | 0 mm | - | - | - |
| 1777399107 | 13.33° C | 70% | 1013 hPa | 0 mm | - | - | - |
| 1777397966 | 13.89° C | 70% | 1013 hPa | 0 mm | - | - | - |
| 1777397906 | 13.89° C | 70% | 1013 hPa | 0 mm | - | - | - |
| 1777396766 | 12.78° C | 69% | 1013 hPa | 0 mm | - | - | - |
* Rain latest hour (hover to see other rain measurements)
** Current wind speed in m/s (hover to see current wind gust speed)